Location: Les Salelles
(44.4192°N, 4.1044°E)
Time: 15:54:19
(UTC+00:00)

MOS 1 Rocket - Pass Details

Date: 20 January 2021
Orbit: 614 x 830 km, 97.4° (Epoch: 26 February)

Event Time Altitude Azimuth Distance (km) Brightness Sun altitude
Exits shadow 18:40:53 - 4° (N) 2,820 6.3 -21.9°
Reaches altitude 10° 18:42:56 10° 357° (N) 2,003 5.6 -22.3°
Maximum altitude 18:46:56 38° 290° (WNW) 938 4.4 -23.0°
Drops below altitude 10° 18:50:54 10° 221° (SW) 1,971 6.2 -23.7°
Sets 18:53:10 0° 214° (SSW) 2,879 7.0 -24.1°
